This demonstration page uses our WeatherBlox Daily Observations layout. Learn more.

40.92945, -100.16068

Hourly Observations for January 28, 2017

Temp ( °F °C ) Dew Point ( °F °C ) Humidity (%) Winds ( mph kmh ) Pressure ( in mb ) Visibility ( mi km ) Precip ( " mm )
12:15 am 00:15 Clear 29 -1.5 24 -4.4 81 81 WNW 13 20 30.3 1026 10 16.0934 0 0
12:35 am 00:35 Clear 29 -1.7 24 -4.3 83 83 WNW 14 22 30.3 1026 10 16.0934 0 0
12:55 am 00:55 Clear 30 -1.2 25 -4 82 82 WNW 17 28 30.3 1026 10 16.0934 0 0
1:15 am 01:15 Clear 30 -0.9 24 -4.2 79 79 WNW 17 28 30.3 1026 10 16.0934 0 0
1:35 am 01:35 Clear 30 -1 24 -4.4 78 78 WNW 18 30 30.3 1026 10 16.0934 0 0
1:55 am 01:55 Clear 30 -1 24 -4.7 76 76 WNW 18 30 30.3 1026 10 16.0934 0 0
2:15 am 02:15 Clear 29 -1.5 23 -5.1 77 77 WNW 17 28 30.3 1026 10 16.0934 0 0
2:35 am 02:35 Clear 29 -1.8 22 -5.5 76 76 WNW 17 28 30.3 1026 10 16.0934 0 0
2:55 am 02:55 Clear 28 -2.1 22 -5.6 77 77 WNW 14 22 30.3 1026 10 16.0934 0 0
3:15 am 03:15 Clear 28 -2.3 22 -5.8 77 77 WNW 14 22 30.3 1026 10 16.0934 0 0
3:35 am 03:35 Clear 28 -2.5 21 -6 77 77 WNW 13 20 30.3 1026 10 16.0934 0 0
3:55 am 03:55 Clear 28 -2.5 21 -6.2 76 76 WNW 13 20 30.3 1026 10 16.0934 0 0
4:15 am 04:15 Clear 28 -2.5 21 -6.2 76 76 WNW 13 20 30.3 1026 10 16.0934 0 0
4:35 am 04:35 Clear 28 -2.5 20 -6.4 75 75 WNW 13 20 30.3 1026 10 16.0934 0 0
4:55 am 04:55 Clear 27 -2.6 20 -6.5 75 75 WNW 13 20 30.27 1025 10 16.0934 0 0
5:15 am 05:15 Clear 27 -2.8 20 -6.7 75 75 WNW 13 20 30.27 1025 10 16.0934 0 0
5:35 am 05:35 Clear 27 -3 20 -6.8 75 75 WNW 14 22 30.27 1025 10 16.0934 0 0
5:55 am 05:55 Clear 27 -2.6 20 -6.9 73 73 WNW 20 31 30.27 1025 10 16.0934 0 0
6:15 am 06:15 Clear 28 -2.5 19 -7.3 70 70 WNW 20 31 30.27 1025 10 16.0934 0 0
6:35 am 06:35 Clear 28 -2.5 19 -7.4 69 69 WNW 20 31 30.27 1025 10 16.0934 0 0
6:55 am 06:55 Clear 27 -2.6 19 -7.5 69 69 WNW 20 31 30.27 1025 10 16.0934 0 0
7:15 am 07:15 Clear 27 -2.8 19 -7.5 70 70 WNW 20 31 30.27 1025 10 16.0934 0 0
7:35 am 07:35 Clear 27 -2.7 19 -7.5 70 70 WNW 17 28 30.27 1025 10 16.0934 0 0
7:55 am 07:55 Sunny 27 -2.9 19 -7.4 71 71 WNW 17 28 30.27 1025 10 16.0934 0 0
8:15 am 08:15 Sunny 28 -2.5 19 -7.1 71 71 WNW 16 26 30.27 1025 10 16.0934 0 0
8:35 am 08:35 Sunny 29 -1.8 20 -6.9 68 68 WNW 15 24 30.27 1025 10 16.0934 0 0
8:55 am 08:55 Mostly Cloudy 30 -1 20 -6.4 67 67 WNW 16 26 30.24 1024 10 16.0934 0 0
9:15 am 09:15 Mostly Cloudy 31 -0.4 21 -6.3 65 65 WNW 16 26 30.24 1024 10 16.0934 0 0
9:35 am 09:35 Mostly Cloudy 32 0 21 -6 64 64 WNW 15 24 30.24 1024 10 16.0934 0 0
9:55 am 09:55 Partly Cloudy 33 0.7 21 -6 61 61 WNW 21 33 30.24 1024 10 16.0934 0 0
10:15 am 10:15 Partly Cloudy 34 1.1 22 -5.8 60 60 WNW 16 26 30.24 1024 10 16.0934 0 0
10:35 am 10:35 Partly Cloudy 35 1.6 22 -5.6 59 59 WNW 15 24 30.24 1024 10 16.0934 0 0
10:55 am 10:55 Cloudy 37 2.6 23 -5.2 57 57 WNW 15 24 30.21 1023 10 16.0934 0 0
11:15 am 11:15 Cloudy 38 3.5 23 -4.9 55 55 WNW 14 22 30.21 1023 10 16.0934 0 0
11:35 am 11:35 Cloudy 41 5 23 -4.8 50 50 NW 22 35 30.18 1022 10 16.0934 0 0
11:55 am 11:55 Cloudy 42 5.5 23 -5.1 47 47 NW 23 37 30.18 1022 10 16.0934 0 0
12:15 pm 12:15 Cloudy 43 6 24 -4.7 47 47 NW 17 28 30.15 1021 10 16.0934 0 0
12:35 pm 12:35 Mostly Cloudy 45 7 24 -4.5 44 44 NW 22 35 30.15 1021 10 16.0934 0 0
12:55 pm 12:55 Sunny 45 7.1 24 -4.6 43 43 NW 20 31 30.15 1021 10 16.0934 0 0
1:15 pm 13:15 Partly Cloudy 45 7.2 24 -4.5 44 44 NW 21 33 30.12 1020 10 16.0934 0 0
1:35 pm 13:35 Mostly Cloudy 45 7 24 -4.4 44 44 NNW 24 39 30.12 1020 10 16.0934 0 0
1:55 pm 13:55 Cloudy 44 6.6 24 -4.2 46 46 NNW 21 33 30.12 1020 10 16.0934 0 0
2:15 pm 14:15 Cloudy 45 7.1 26 -3.6 47 47 NNW 17 28 30.12 1020 10 16.0934 0 0
2:35 pm 14:35 Cloudy 46 7.5 26 -3.3 47 47 NW 17 28 30.09 1019 10 16.0934 0 0
2:55 pm 14:55 Cloudy 47 8.1 25 -3.8 43 43 WNW 18 30 30.09 1019 10 16.0934 0 0
3:15 pm 15:15 Cloudy 46 7.7 25 -3.9 44 44 NW 25 41 30.06 1018 10 16.0934 0 0
3:35 pm 15:35 Cloudy 46 7.6 24 -4.2 43 43 NW 25 41 30.06 1018 10 16.0934 0 0
3:55 pm 15:55 Mostly Cloudy 46 7.7 25 -4.1 43 43 NW 30 48 30.06 1018 10 16.0934 0 0
4:15 pm 16:15 Mostly Cloudy 46 7.5 26 -3.4 46 46 NW 23 37 30.09 1019 10 16.0934 0 0
4:35 pm 16:35 Partly Cloudy 45 7 26 -3.1 49 49 NW 16 26 30.09 1019 10 16.0934 0 0
4:55 pm 16:55 Sunny 43 6.2 26 -3.2 51 51 NW 23 37 30.09 1019 10 16.0934 0 0
5:15 pm 17:15 Sunny 42 5.5 27 -3 55 55 NNW 20 31 30.12 1020 10 16.0934 0 0
5:35 pm 17:35 Sunny 40 4.6 27 -3 58 58 NW 17 28 30.12 1020 10 16.0934 0 0
5:55 pm 17:55 Clear 39 4 27 -3 61 61 NW 16 26 30.15 1021 10 16.0934 0 0
6:15 pm 18:15 Clear 38 3.6 27 -3 62 62 NW 14 22 30.15 1021 10 16.0934 0 0
6:35 pm 18:35 Partly Cloudy 39 3.8 27 -3 62 62 NW 16 26 30.15 1021 10 16.0934 0 0
6:55 pm 18:55 Mostly Cloudy 38 3.6 27 -3 62 62 NW 16 26 30.15 1021 10 16.0934 0 0
7:15 pm 19:15 Partly Cloudy 38 3.2 27 -2.8 65 65 NW 12 19 30.15 1021 10 16.0934 0 0
7:35 pm 19:35 Clear 37 2.8 27 -2.6 68 68 WNW 14 22 30.15 1021 10 16.0934 0 0
7:55 pm 19:55 Clear 37 3 27 -2.6 67 67 NW 15 24 30.15 1021 10 16.0934 0 0
8:15 pm 20:15 Clear 37 2.5 27 -2.6 69 69 NW 16 26 30.18 1022 10 16.0934 0 0
8:35 pm 20:35 Clear 37 2.5 27 -2.6 69 69 NW 17 28 30.18 1022 10 16.0934 0 0
8:55 pm 20:55 Clear 36 2 28 -2.5 72 72 NW 14 22 30.18 1022 10 16.0934 0 0
9:15 pm 21:15 Clear 35 1.8 27 -2.6 73 73 NW 13 20 30.18 1022 10 16.0934 0 0
9:35 pm 21:35 Clear 35 1.6 27 -2.6 74 74 NW 12 19 30.18 1022 10 16.0934 0 0
9:55 pm 21:55 Clear 34 1 27 -2.6 77 77 WNW 12 19 30.21 1023 10 16.0934 0 0
10:15 pm 22:15 Clear 34 1 27 -2.6 77 77 WNW 14 22 30.18 1022 10 16.0934 0 0
10:35 pm 22:35 Clear 34 1 27 -2.7 77 77 NW 10 17 30.21 1023 10 16.0934 0 0
10:55 pm 22:55 Clear 33 0.6 27 -2.6 79 79 NW 13 20 30.21 1023 10 16.0934 0 0
11:15 pm 23:15 Clear 34 0.9 27 -2.6 78 78 NW 12 19 30.21 1023 10 16.0934 0 0
11:35 pm 23:35 Clear 34 1.1 27 -2.6 77 77 WNW 14 22 30.21 1023 10 16.0934 0 0
11:55 pm 23:55 Partly Cloudy 34 1.3 28 -2.5 76 76 NW 12 19 30.21 1023 10 16.0934 0 0

Powered by AerisWeather